Time,TemperatureF,DewpointF,PressureIn,WindDirection,WindDirectionDegrees,WindSpeedMPH,WindSpeedGustMPH,Humidity,HourlyPrecipIn,Conditions,Clouds,dailyrainin,SoftwareType,DateUTC
2013-07-14 00:05:00,58.7,39.1,29.95,SSW,213,0.0,0.0,48,0.00,,CLR,0.00,VWS V14.01,2013-07-14 06:05:00,
2013-07-14 00:10:00,58.4,38.8,29.95,SSW,213,0.0,0.0,48,0.00,,CLR,0.00,VWS V14.01,2013-07-14 06:10:00,
2013-07-14 00:15:00,58.3,39.2,29.95,SSW,213,0.0,0.0,49,0.00,,CLR,0.00,VWS V14.01,2013-07-14 06:15:00,
2013-07-14 00:20:00,58.0,39.0,29.96,SSW,213,0.0,0.0,49,0.00,,CLR,0.00,VWS V14.01,2013-07-14 06:20:00,
2013-07-14 00:25:00,57.6,39.1,29.96,West,264,0.0,2.0,50,0.00,,CLR,0.00,VWS V14.01,2013-07-14 06:25:00,
2013-07-14 00:30:00,57.8,39.8,29.96,West,264,0.0,0.0,51,0.00,,CLR,0.00,VWS V14.01,2013-07-14 06:30:00,
2013-07-14 00:35:00,57.5,39.5,29.96,West,264,0.0,0.0,51,0.00,,CLR,0.00,VWS V14.01,2013-07-14 06:35:00,
2013-07-14 00:40:00,57.3,39.8,29.96,West,264,0.0,0.0,52,0.00,,CLR,0.00,VWS V14.01,2013-07-14 06:40:00,
2013-07-14 00:45:00,57.3,39.3,29.96,West,269,0.0,0.0,51,0.00,,CLR,0.00,VWS V14.01,2013-07-14 06:45:00,
2013-07-14 00:50:00,57.6,40.1,29.96,West,269,0.0,0.0,52,0.00,,CLR,0.00,VWS V14.01,2013-07-14 06:50:00,
2013-07-14 00:55:00,57.8,39.3,29.96,West,267,0.0,0.0,50,0.00,,CLR,0.00,VWS V14.01,2013-07-14 06:55:00,
2013-07-14 01:00:00,58.1,39.6,29.96,West,267,0.0,0.0,50,0.00,,CLR,0.00,VWS V14.01,2013-07-14 07:00:00,
2013-07-14 01:05:00,58.1,39.6,29.95,West,267,0.0,0.0,50,0.00,,CLR,0.00,VWS V14.01,2013-07-14 07:05:00,
2013-07-14 01:11:00,58.0,40.0,29.95,West,267,0.0,0.0,51,0.00,,CLR,0.00,VWS V14.01,2013-07-14 07:11:00,
2013-07-14 01:16:00,57.8,39.8,29.95,NE,52,1.0,1.0,51,0.00,,CLR,0.00,VWS V14.01,2013-07-14 07:16:00,
2013-07-14 01:21:00,57.8,40.8,29.95,NNE,28,0.0,0.0,53,0.00,,CLR,0.00,VWS V14.01,2013-07-14 07:21:00,
2013-07-14 01:26:00,57.6,40.1,29.95,NNE,28,0.0,0.0,52,0.00,,CLR,0.00,VWS V14.01,2013-07-14 07:26:00,
2013-07-14 01:31:00,57.3,39.8,29.95,NNE,28,0.0,0.0,52,0.00,,CLR,0.00,VWS V14.01,2013-07-14 07:31:00,
2013-07-14 01:36:00,57.0,39.6,29.97,NNE,28,0.0,0.0,52,0.00,,CLR,0.00,VWS V14.01,2013-07-14 07:36:00,
2013-07-14 01:41:00,56.7,40.3,29.97,NNE,28,0.0,0.0,54,0.00,,CLR,0.00,VWS V14.01,2013-07-14 07:41:00,
2013-07-14 01:46:00,56.5,40.1,29.97,NNE,28,0.0,0.0,54,0.00,,CLR,0.00,VWS V14.01,2013-07-14 07:46:00,
2013-07-14 01:51:00,56.2,40.3,29.97,NNE,28,0.0,0.0,55,0.00,,CLR,0.00,VWS V14.01,2013-07-14 07:51:00,
2013-07-14 01:56:00,55.9,40.0,29.97,NNE,28,0.0,0.0,55,0.00,,CLR,0.00,VWS V14.01,2013-07-14 07:56:00,
2013-07-14 02:01:00,55.4,40.0,29.97,NNE,28,0.0,0.0,56,0.00,,CLR,0.00,VWS V14.01,2013-07-14 08:01:00,
2013-07-14 02:06:00,55.1,39.7,29.98,NNE,28,0.0,0.0,56,0.00,,CLR,0.00,VWS V14.01,2013-07-14 08:06:00,
2013-07-14 02:11:00,55.0,39.6,29.98,NNE,28,0.0,0.0,56,0.00,,CLR,0.00,VWS V14.01,2013-07-14 08:11:00,
2013-07-14 02:16:00,54.8,39.9,29.98,NNE,28,0.0,0.0,57,0.00,,CLR,0.00,VWS V14.01,2013-07-14 08:16:00,
2013-07-14 02:21:00,54.7,40.2,29.96,NNE,28,0.0,0.0,58,0.00,,CLR,0.00,VWS V14.01,2013-07-14 08:21:00,
2013-07-14 02:27:00,54.4,40.0,29.96,NNE,28,0.0,0.0,58,0.00,,CLR,0.00,VWS V14.01,2013-07-14 08:27:00,
2013-07-14 02:32:00,54.2,39.8,29.96,NNE,28,0.0,0.0,58,0.00,,CLR,0.00,VWS V14.01,2013-07-14 08:32:00,
2013-07-14 02:37:00,54.1,39.7,29.97,NNE,29,0.0,0.0,58,0.00,,CLR,0.00,VWS V14.01,2013-07-14 08:37:00,
2013-07-14 02:42:00,53.9,39.9,29.97,NNE,29,0.0,0.0,59,0.00,,CLR,0.00,VWS V14.01,2013-07-14 08:42:00,
2013-07-14 02:47:00,53.8,39.8,29.97,NNE,29,0.0,0.0,59,0.00,,CLR,0.00,VWS V14.01,2013-07-14 08:47:00,
2013-07-14 02:52:00,53.6,39.6,29.97,NNE,29,0.0,0.0,59,0.00,,CLR,0.00,VWS V14.01,2013-07-14 08:52:00,
2013-07-14 02:57:00,53.5,39.5,29.97,NNE,29,0.0,0.0,59,0.00,,CLR,0.00,VWS V14.01,2013-07-14 08:57:00,
2013-07-14 03:02:00,53.3,39.3,29.97,NNE,29,0.0,0.0,59,0.00,,CLR,0.00,VWS V14.01,2013-07-14 09:02:00,
2013-07-14 03:07:00,53.3,39.3,29.97,NNE,29,0.0,0.0,59,0.00,,CLR,0.00,VWS V14.01,2013-07-14 09:07:00,
2013-07-14 03:12:00,53.2,39.7,29.97,NNE,29,0.0,0.0,60,0.00,,CLR,0.00,VWS V14.01,2013-07-14 09:12:00,
2013-07-14 03:17:00,53.1,39.6,29.97,NNE,29,0.0,0.0,60,0.00,,CLR,0.00,VWS V14.01,2013-07-14 09:17:00,
2013-07-14 03:22:00,52.9,39.4,29.97,NNE,29,0.0,0.0,60,0.00,,CLR,0.00,VWS V14.01,2013-07-14 09:22:00,
2013-07-14 03:27:00,52.8,39.7,29.97,NNE,29,0.0,0.0,61,0.00,,CLR,0.00,VWS V14.01,2013-07-14 09:27:00,
2013-07-14 03:33:00,52.6,39.5,29.97,NNE,29,0.0,0.0,61,0.00,,CLR,0.00,VWS V14.01,2013-07-14 09:33:00,
2013-07-14 03:38:00,52.6,39.5,29.97,NNE,29,0.0,0.0,61,0.00,,CLR,0.00,VWS V14.01,2013-07-14 09:38:00,
2013-07-14 03:43:00,52.5,39.5,29.97,NNE,29,0.0,0.0,61,0.00,,CLR,0.00,VWS V14.01,2013-07-14 09:43:00,
2013-07-14 03:48:00,52.3,39.7,29.97,NNE,29,0.0,0.0,62,0.00,,CLR,0.00,VWS V14.01,2013-07-14 09:48:00,
2013-07-14 03:53:00,52.2,39.6,29.97,NNE,29,0.0,0.0,62,0.00,,CLR,0.00,VWS V14.01,2013-07-14 09:53:00,
2013-07-14 03:58:00,52.0,39.8,29.97,NNE,29,0.0,0.0,63,0.00,,CLR,0.00,VWS V14.01,2013-07-14 09:58:00,
2013-07-14 04:03:00,51.9,40.1,29.97,NNE,29,0.0,0.0,64,0.00,,CLR,0.00,VWS V14.01,2013-07-14 10:03:00,
2013-07-14 04:08:00,51.7,39.9,29.97,NNE,29,0.0,0.0,64,0.00,,CLR,0.00,VWS V14.01,2013-07-14 10:08:00,
2013-07-14 04:13:00,51.6,39.8,29.97,NNE,29,0.0,0.0,64,0.00,,CLR,0.00,VWS V14.01,2013-07-14 10:13:00,
2013-07-14 04:18:00,51.4,39.7,29.98,NNE,29,0.0,0.0,64,0.00,,CLR,0.00,VWS V14.01,2013-07-14 10:18:00,
2013-07-14 04:23:00,51.3,40.0,29.98,NNE,29,0.0,0.0,65,0.00,,CLR,0.00,VWS V14.01,2013-07-14 10:23:00,
2013-07-14 04:28:00,51.1,39.4,29.98,NNE,29,0.0,0.0,64,0.00,,CLR,0.00,VWS V14.01,2013-07-14 10:28:00,
2013-07-14 04:33:00,51.0,39.7,29.97,NNE,29,0.0,0.0,65,0.00,,CLR,0.00,VWS V14.01,2013-07-14 10:33:00,
2013-07-14 04:38:00,51.0,39.7,29.97,NNE,29,0.0,0.0,65,0.00,,CLR,0.00,VWS V14.01,2013-07-14 10:38:00,
2013-07-14 04:44:00,50.8,39.9,29.97,NNE,29,0.0,0.0,66,0.00,,CLR,0.00,VWS V14.01,2013-07-14 10:44:00,
2013-07-14 04:49:00,50.7,39.8,29.98,NNE,29,0.0,0.0,66,0.00,,CLR,0.00,VWS V14.01,2013-07-14 10:49:00,
2013-07-14 04:54:00,50.7,39.8,29.98,NNE,29,0.0,0.0,66,0.00,,CLR,0.00,VWS V14.01,2013-07-14 10:54:00,
2013-07-14 04:59:00,50.7,39.8,29.98,NNE,29,0.0,0.0,66,0.00,,CLR,0.00,VWS V14.01,2013-07-14 10:59:00,
2013-07-14 05:04:00,50.7,39.8,29.98,NNE,29,0.0,0.0,66,0.00,,CLR,0.00,VWS V14.01,2013-07-14 11:04:00,
2013-07-14 05:09:00,50.5,39.6,29.98,NNE,29,0.0,0.0,66,0.00,,CLR,0.00,VWS V14.01,2013-07-14 11:09:00,
2013-07-14 05:14:00,50.5,39.6,29.98,NNE,29,0.0,0.0,66,0.00,,CLR,0.00,VWS V14.01,2013-07-14 11:14:00,
2013-07-14 05:19:00,50.4,39.5,30.01,NNE,29,0.0,0.0,66,0.00,,CLR,0.00,VWS V14.01,2013-07-14 11:19:00,
2013-07-14 05:24:00,50.2,39.3,30.01,NNE,29,0.0,0.0,66,0.00,,CLR,0.00,VWS V14.01,2013-07-14 11:24:00,
2013-07-14 05:29:00,50.1,39.2,30.01,NNE,29,0.0,0.0,66,0.00,,CLR,0.00,VWS V14.01,2013-07-14 11:29:00,
2013-07-14 05:34:00,50.1,39.2,30.01,NNE,29,0.0,0.0,66,0.00,,CLR,0.00,VWS V14.01,2013-07-14 11:34:00,
2013-07-14 05:39:00,50.1,39.6,30.01,NNE,29,0.0,0.0,67,0.00,,CLR,0.00,VWS V14.01,2013-07-14 11:39:00,
2013-07-14 05:44:00,49.9,39.4,30.01,NNE,29,0.0,0.0,67,0.00,,CLR,0.00,VWS V14.01,2013-07-14 11:44:00,
2013-07-14 05:49:00,49.8,39.3,30.01,NNE,29,0.0,0.0,67,0.00,,CLR,0.00,VWS V14.01,2013-07-14 11:49:00,
2013-07-14 05:55:00,49.6,39.1,30.01,NNE,29,0.0,0.0,67,0.00,,CLR,0.00,VWS V14.01,2013-07-14 11:55:00,
2013-07-14 06:00:00,49.5,39.4,30.01,NNE,29,0.0,0.0,68,0.00,,CLR,0.00,VWS V14.01,2013-07-14 12:00:00,
2013-07-14 06:05:00,49.5,39.4,30.01,NNE,29,0.0,0.0,68,0.00,,CLR,0.00,VWS V14.01,2013-07-14 12:05:00,
2013-07-14 06:10:00,49.4,39.3,30.01,NNE,29,0.0,0.0,68,0.00,,CLR,0.00,VWS V14.01,2013-07-14 12:10:00,
2013-07-14 06:15:00,49.4,39.3,30.01,NNE,29,0.0,0.0,68,0.00,,CLR,0.00,VWS V14.01,2013-07-14 12:15:00,
2013-07-14 06:20:00,49.4,39.7,30.01,NNE,29,0.0,0.0,69,0.00,,CLR,0.00,VWS V14.01,2013-07-14 12:20:00,
2013-07-14 06:25:00,49.4,39.7,30.01,NNE,29,0.0,0.0,69,0.00,,CLR,0.00,VWS V14.01,2013-07-14 12:25:00,
2013-07-14 06:30:00,49.5,39.8,30.01,NNE,29,0.0,0.0,69,0.00,,CLR,0.00,VWS V14.01,2013-07-14 12:30:00,
2013-07-14 06:35:00,49.5,40.1,30.01,NNE,29,0.0,0.0,70,0.00,,CLR,0.00,VWS V14.01,2013-07-14 12:35:00,
2013-07-14 06:40:00,49.5,40.1,30.01,NNE,29,0.0,0.0,70,0.00,,CLR,0.00,VWS V14.01,2013-07-14 12:40:00,
2013-07-14 06:45:00,49.6,40.2,30.01,NNE,29,0.0,0.0,70,0.00,,CLR,0.00,VWS V14.01,2013-07-14 12:45:00,
2013-07-14 06:50:00,49.6,40.6,30.01,NNE,29,0.0,0.0,71,0.00,,CLR,0.00,VWS V14.01,2013-07-14 12:50:00,
2013-07-14 06:55:00,49.8,40.8,30.01,NNE,29,0.0,0.0,71,0.00,,CLR,0.00,VWS V14.01,2013-07-14 12:55:00,
2013-07-14 07:00:00,49.8,41.2,30.01,NNE,29,0.0,0.0,72,0.00,,CLR,0.00,VWS V14.01,2013-07-14 13:00:00,
2013-07-14 07:05:00,49.9,41.2,30.01,NNE,29,0.0,0.0,72,0.00,,CLR,0.00,VWS V14.01,2013-07-14 13:05:00,
2013-07-14 07:11:00,50.2,41.5,30.01,NNE,29,0.0,0.0,72,0.00,,CLR,0.00,VWS V14.01,2013-07-14 13:11:00,
2013-07-14 07:16:00,50.7,42.0,30.01,NNE,29,0.0,0.0,72,0.00,,CLR,0.00,VWS V14.01,2013-07-14 13:16:00,
2013-07-14 07:21:00,51.0,41.6,30.02,NNE,29,0.0,0.0,70,0.00,,CLR,0.00,VWS V14.01,2013-07-14 13:21:00,
2013-07-14 07:26:00,51.3,41.1,30.02,NNE,29,0.0,0.0,68,0.00,,CLR,0.00,VWS V14.01,2013-07-14 13:26:00,
2013-07-14 07:31:00,51.7,41.1,30.02,NNE,29,0.0,0.0,67,0.00,,CLR,0.00,VWS V14.01,2013-07-14 13:31:00,
2013-07-14 07:36:00,51.9,41.3,30.02,NNE,29,0.0,0.0,67,0.00,,CLR,0.00,VWS V14.01,2013-07-14 13:36:00,
2013-07-14 07:41:00,52.2,40.8,30.02,NNE,29,0.0,0.0,65,0.00,,CLR,0.00,VWS V14.01,2013-07-14 13:41:00,
2013-07-14 07:46:00,52.3,40.5,30.02,NNE,29,0.0,0.0,64,0.00,,CLR,0.00,VWS V14.01,2013-07-14 13:46:00,
2013-07-14 07:51:00,52.5,40.7,30.03,NNE,29,0.0,0.0,64,0.00,,CLR,0.00,VWS V14.01,2013-07-14 13:51:00,
2013-07-14 07:56:00,52.9,41.1,30.03,NNE,29,0.0,0.0,64,0.00,,CLR,0.00,VWS V14.01,2013-07-14 13:56:00,
2013-07-14 08:01:00,53.2,41.3,30.03,NNE,29,0.0,0.0,64,0.00,,CLR,0.00,VWS V14.01,2013-07-14 14:01:00,
2013-07-14 08:06:00,53.5,40.8,30.02,NNE,29,0.0,0.0,62,0.00,,CLR,0.00,VWS V14.01,2013-07-14 14:06:00,
2013-07-14 08:11:00,53.8,40.7,30.02,NNE,28,0.0,0.0,61,0.00,,CLR,0.00,VWS V14.01,2013-07-14 14:11:00,
2013-07-14 08:16:00,54.1,40.5,30.02,NNE,28,0.0,0.0,60,0.00,,CLR,0.00,VWS V14.01,2013-07-14 14:16:00,
2013-07-14 08:21:00,54.4,40.4,30.04,North,9,0.0,1.0,59,0.00,,CLR,0.00,VWS V14.01,2013-07-14 14:21:00,
2013-07-14 08:27:00,54.7,40.7,30.04,North,9,0.0,0.0,59,0.00,,CLR,0.00,VWS V14.01,2013-07-14 14:27:00,
2013-07-14 08:32:00,55.0,41.0,30.04,NNE,16,0.0,1.0,59,0.00,,CLR,0.00,VWS V14.01,2013-07-14 14:32:00,
2013-07-14 08:37:00,55.3,40.8,30.03,NNE,16,0.0,0.0,58,0.00,,CLR,0.00,VWS V14.01,2013-07-14 14:37:00,
2013-07-14 08:42:00,55.4,40.9,30.03,NNE,15,1.0,1.0,58,0.00,,CLR,0.00,VWS V14.01,2013-07-14 14:42:00,
2013-07-14 08:47:00,55.7,41.2,30.03,NW,319,2.0,2.0,58,0.00,,CLR,0.00,VWS V14.01,2013-07-14 14:47:00,
2013-07-14 08:52:00,56.2,41.2,30.03,North,355,0.0,1.0,57,0.00,,CLR,0.00,VWS V14.01,2013-07-14 14:52:00,
2013-07-14 08:57:00,56.7,41.7,30.03,NE,55,0.0,1.0,57,0.00,,CLR,0.00,VWS V14.01,2013-07-14 14:57:00,
2013-07-14 09:02:00,57.3,41.3,30.03,North,355,0.0,1.0,55,0.00,,CLR,0.00,VWS V14.01,2013-07-14 15:02:00,
2013-07-14 09:07:00,58.3,41.8,30.02,North,5,0.0,2.0,54,0.00,,CLR,0.00,VWS V14.01,2013-07-14 15:07:00,
2013-07-14 09:12:00,59.0,40.9,30.02,North,355,0.0,2.0,51,0.00,,CLR,0.00,VWS V14.01,2013-07-14 15:12:00,
2013-07-14 09:17:00,59.3,41.2,30.02,North,5,1.0,3.0,51,0.00,,CLR,0.00,VWS V14.01,2013-07-14 15:17:00,
2013-07-14 09:22:00,59.8,41.7,30.02,WSW,242,0.0,3.0,51,0.00,,CLR,0.00,VWS V14.01,2013-07-14 15:22:00,
2013-07-14 09:27:00,59.9,41.8,30.02,West,263,0.0,1.0,51,0.00,,CLR,0.00,VWS V14.01,2013-07-14 15:27:00,
2013-07-14 09:33:00,60.4,42.7,30.02,NNE,12,0.0,3.0,52,0.00,,CLR,0.00,VWS V14.01,2013-07-14 15:33:00,
2013-07-14 09:38:00,60.9,42.2,30.01,North,5,0.0,2.0,50,0.00,,CLR,0.00,VWS V14.01,2013-07-14 15:38:00,
2013-07-14 09:43:00,61.2,41.9,30.01,North,5,2.0,3.0,49,0.00,,CLR,0.00,VWS V14.01,2013-07-14 15:43:00,
2013-07-14 09:48:00,61.5,41.7,30.00,SW,224,1.0,3.0,48,0.00,,CLR,0.00,VWS V14.01,2013-07-14 15:48:00,
2013-07-14 09:53:00,61.5,42.2,30.00,West,270,0.0,3.0,49,0.00,,CLR,0.00,VWS V14.01,2013-07-14 15:53:00,
2013-07-14 09:58:00,61.6,43.3,30.00,North,5,1.0,1.0,51,0.00,,CLR,0.00,VWS V14.01,2013-07-14 15:58:00,
2013-07-14 10:03:00,62.0,42.1,30.00,North,355,1.0,3.0,48,0.00,,CLR,0.00,VWS V14.01,2013-07-14 16:03:00,
2013-07-14 10:04:00,62.0,42.1,30.00,North,360,3.0,3.0,48,0.00,,CLR,0.00,VWS V14.01,2013-07-14 16:04:00,
2013-07-14 10:09:00,62.3,42.4,30.00,North,5,0.0,0.0,48,0.00,,CLR,0.00,VWS V14.01,2013-07-14 16:09:00,
2013-07-14 10:14:00,62.6,42.7,30.00,WSW,252,2.0,3.0,48,0.00,,CLR,0.00,VWS V14.01,2013-07-14 16:14:00,
2013-07-14 10:19:00,62.9,42.9,30.00,WNW,286,0.0,0.0,48,0.00,,CLR,0.00,VWS V14.01,2013-07-14 16:19:00,
2013-07-14 10:24:00,63.4,42.8,30.00,North,355,0.0,0.0,47,0.00,,CLR,0.00,VWS V14.01,2013-07-14 16:24:00,
2013-07-14 10:29:00,64.3,44.2,30.00,NNW,330,0.0,0.0,48,0.00,,CLR,0.00,VWS V14.01,2013-07-14 16:29:00,
2013-07-14 10:34:00,65.5,45.8,29.99,NNW,328,0.0,0.0,49,0.00,,CLR,0.00,VWS V14.01,2013-07-14 16:34:00,
2013-07-14 10:39:00,66.6,46.9,29.99,West,263,2.0,5.0,49,0.00,,CLR,0.00,VWS V14.01,2013-07-14 16:39:00,
2013-07-14 10:44:00,67.1,43.9,29.99,SW,215,0.0,5.0,43,0.00,,CLR,0.00,VWS V14.01,2013-07-14 16:44:00,
2013-07-14 10:49:00,67.8,43.9,29.98,WSW,252,2.0,2.0,42,0.00,,CLR,0.00,VWS V14.01,2013-07-14 16:49:00,
2013-07-14 10:54:00,68.4,45.0,29.98,East,80,0.0,1.0,43,0.00,,CLR,0.00,VWS V14.01,2013-07-14 16:54:00,
2013-07-14 11:00:00,68.9,44.2,29.98,NNW,348,0.0,4.0,41,0.00,,CLR,0.00,VWS V14.01,2013-07-14 17:00:00,
2013-07-14 11:05:00,69.1,45.7,29.97,NW,316,1.0,2.0,43,0.00,,CLR,0.00,VWS V14.01,2013-07-14 17:05:00,
2013-07-14 11:10:00,69.4,45.3,29.97,NNE,24,0.0,0.0,42,0.00,,CLR,0.00,VWS V14.01,2013-07-14 17:10:00,
2013-07-14 11:15:00,70.1,46.0,29.97,West,273,0.0,2.0,42,0.00,,CLR,0.00,VWS V14.01,2013-07-14 17:15:00,
2013-07-14 11:20:00,70.8,46.0,29.98,WNW,292,2.0,4.0,41,0.00,,CLR,0.00,VWS V14.01,2013-07-14 17:20:00,
2013-07-14 11:25:00,71.3,45.1,29.98,SW,227,1.0,3.0,39,0.00,,CLR,0.00,VWS V14.01,2013-07-14 17:25:00,
2013-07-14 11:30:00,71.8,46.2,29.98,West,265,1.0,2.0,40,0.00,,CLR,0.00,VWS V14.01,2013-07-14 17:30:00,
2013-07-14 11:35:00,72.0,45.0,29.98,WNW,292,4.0,8.0,38,0.00,,CLR,0.00,VWS V14.01,2013-07-14 17:35:00,
2013-07-14 11:40:00,72.0,45.0,29.98,SW,236,1.0,7.0,38,0.00,,CLR,0.00,VWS V14.01,2013-07-14 17:40:00,
2013-07-14 11:45:00,70.6,45.8,29.98,West,262,3.0,3.0,41,0.00,,CLR,0.00,VWS V14.01,2013-07-14 17:45:00,
2013-07-14 11:50:00,68.3,53.4,29.98,South,183,0.0,0.0,59,0.08,,CLR,0.08,VWS V14.01,2013-07-14 17:50:00,
2013-07-14 11:55:00,64.2,55.0,29.98,SW,235,0.0,1.0,72,0.08,,CLR,0.08,VWS V14.01,2013-07-14 17:55:00,
2013-07-14 12:00:00,61.6,54.7,29.98,SW,235,0.0,0.0,78,0.08,,CLR,0.08,VWS V14.01,2013-07-14 18:00:00,
2013-07-14 12:06:00,60.5,56.3,30.00,SW,235,0.0,0.0,86,0.08,,CLR,0.08,VWS V14.01,2013-07-14 18:06:00,
2013-07-14 12:11:00,61.3,58.3,30.00,SW,235,0.0,0.0,90,0.08,,CLR,0.08,VWS V14.01,2013-07-14 18:11:00,
2013-07-14 12:16:00,62.6,60.2,30.00,SW,235,0.0,0.0,92,0.08,,CLR,0.08,VWS V14.01,2013-07-14 18:16:00,
2013-07-14 12:21:00,62.9,59.3,29.97,SW,235,0.0,0.0,88,0.08,,CLR,0.08,VWS V14.01,2013-07-14 18:21:00,
2013-07-14 12:26:00,62.9,57.3,29.97,SW,235,0.0,0.0,82,0.08,,CLR,0.08,VWS V14.01,2013-07-14 18:26:00,
2013-07-14 12:31:00,62.7,58.5,29.97,SW,235,0.0,0.0,86,0.08,,CLR,0.08,VWS V14.01,2013-07-14 18:31:00,
2013-07-14 12:36:00,62.7,58.1,29.97,SW,235,0.0,0.0,85,0.08,,CLR,0.08,VWS V14.01,2013-07-14 18:36:00,
2013-07-14 12:41:00,63.1,59.2,29.97,SW,235,0.0,2.0,87,0.08,,CLR,0.08,VWS V14.01,2013-07-14 18:41:00,
2013-07-14 12:46:00,63.5,58.6,29.97,SW,235,0.0,0.0,84,0.08,,CLR,0.08,VWS V14.01,2013-07-14 18:46:00,
2013-07-14 12:51:00,64.8,61.8,29.95,SW,235,0.0,0.0,90,0.05,,CLR,0.08,VWS V14.01,2013-07-14 18:51:00,
2013-07-14 12:56:00,66.4,61.4,29.95,WNW,286,0.0,1.0,84,0.00,,CLR,0.08,VWS V14.01,2013-07-14 18:56:00,
2013-07-14 13:01:00,67.8,58.1,29.95,WNW,286,0.0,0.0,71,0.00,,CLR,0.08,VWS V14.01,2013-07-14 19:01:00,
2013-07-14 13:06:00,69.3,56.2,29.93,WNW,287,0.0,0.0,63,0.00,,CLR,0.08,VWS V14.01,2013-07-14 19:06:00,
2013-07-14 13:11:00,70.8,60.9,29.93,South,172,0.0,1.0,71,0.00,,CLR,0.08,VWS V14.01,2013-07-14 19:11:00,
2013-07-14 13:17:00,72.3,53.2,29.93,West,266,0.0,1.0,51,0.00,,CLR,0.08,VWS V14.01,2013-07-14 19:17:00,
2013-07-14 13:22:00,73.7,53.9,29.92,West,271,0.0,1.0,50,0.00,,CLR,0.08,VWS V14.01,2013-07-14 19:22:00,
2013-07-14 13:27:00,74.9,50.9,29.92,West,265,4.0,5.0,43,0.00,,CLR,0.08,VWS V14.01,2013-07-14 19:27:00,
2013-07-14 13:32:00,75.4,50.7,29.92,North,360,0.0,2.0,42,0.00,,CLR,0.08,VWS V14.01,2013-07-14 19:32:00,
2013-07-14 13:37:00,76.0,47.9,29.91,WSW,249,0.0,5.0,37,0.00,,CLR,0.08,VWS V14.01,2013-07-14 19:37:00,
2013-07-14 13:42:00,76.5,49.7,29.91,ENE,78,0.0,5.0,39,0.00,,CLR,0.08,VWS V14.01,2013-07-14 19:42:00,
2013-07-14 13:47:00,76.3,49.5,29.91,WNW,292,0.0,6.0,39,0.00,,CLR,0.08,VWS V14.01,2013-07-14 19:47:00,
2013-07-14 13:52:00,76.0,47.9,29.92,SW,215,0.0,4.0,37,0.00,,CLR,0.08,VWS V14.01,2013-07-14 19:52:00,
2013-07-14 13:57:00,75.4,46.6,29.92,WSW,250,0.0,5.0,36,0.00,,CLR,0.08,VWS V14.01,2013-07-14 19:57:00,
2013-07-14 14:03:00,75.1,47.8,29.92,NNW,336,0.0,4.0,38,0.00,,CLR,0.08,VWS V14.01,2013-07-14 20:03:00,
2013-07-14 14:08:00,74.9,46.9,29.91,WSW,258,10.0,11.0,37,0.00,,CLR,0.08,VWS V14.01,2013-07-14 20:08:00,
2013-07-14 14:13:00,75.1,48.5,29.91,WSW,257,0.0,5.0,39,0.00,,CLR,0.08,VWS V14.01,2013-07-14 20:13:00,
2013-07-14 14:18:00,76.0,46.4,29.92,West,259,0.0,10.0,35,0.00,,CLR,0.08,VWS V14.01,2013-07-14 20:18:00,
2013-07-14 14:23:00,76.5,47.6,29.92,West,259,1.0,7.0,36,0.00,,CLR,0.08,VWS V14.01,2013-07-14 20:23:00,
2013-07-14 14:28:00,76.8,47.1,29.92,West,277,1.0,6.0,35,0.00,,CLR,0.08,VWS V14.01,2013-07-14 20:28:00,
2013-07-14 14:33:00,77.0,45.7,29.90,WSW,240,3.0,3.0,33,0.00,,CLR,0.08,VWS V14.01,2013-07-14 20:33:00,
2013-07-14 14:38:00,77.6,52.1,29.90,SE,138,0.0,6.0,41,0.00,,CLR,0.08,VWS V14.01,2013-07-14 20:38:00,
2013-07-14 14:43:00,78.3,47.7,29.90,South,178,2.0,2.0,34,0.00,,CLR,0.08,VWS V14.01,2013-07-14 20:43:00,
2013-07-14 14:48:00,78.6,47.9,29.89,West,280,2.0,6.0,34,0.00,,CLR,0.08,VWS V14.01,2013-07-14 20:48:00,
2013-07-14 14:53:00,78.8,48.1,29.89,WSW,252,0.0,4.0,34,0.00,,CLR,0.08,VWS V14.01,2013-07-14 20:53:00,
2013-07-14 14:58:00,79.0,50.5,29.89,WNW,291,3.0,4.0,37,0.00,,CLR,0.08,VWS V14.01,2013-07-14 20:58:00,
2013-07-14 15:03:00,79.2,46.0,29.89,NNE,30,0.0,6.0,31,0.00,,CLR,0.08,VWS V14.01,2013-07-14 21:03:00,
2013-07-14 15:08:00,80.5,46.2,29.89,NNE,15,0.0,4.0,30,0.00,,CLR,0.08,VWS V14.01,2013-07-14 21:08:00,
2013-07-14 15:13:00,80.3,44.3,29.89,South,187,0.0,3.0,28,0.00,,CLR,0.08,VWS V14.01,2013-07-14 21:13:00,
2013-07-14 15:19:00,79.8,49.7,29.89,East,88,2.0,5.0,35,0.00,,CLR,0.08,VWS V14.01,2013-07-14 21:19:00,
2013-07-14 15:24:00,79.2,46.0,29.89,WSW,240,0.0,0.0,31,0.00,,CLR,0.08,VWS V14.01,2013-07-14 21:24:00,
2013-07-14 15:29:00,78.8,47.3,29.89,WSW,248,0.0,1.0,33,0.00,,CLR,0.08,VWS V14.01,2013-07-14 21:29:00,
2013-07-14 15:34:00,79.8,46.5,29.89,SSW,202,1.0,1.0,31,0.00,,CLR,0.08,VWS V14.01,2013-07-14 21:34:00,
2013-07-14 15:39:00,81.2,45.0,29.89,East,94,0.0,1.0,28,0.00,,CLR,0.08,VWS V14.01,2013-07-14 21:39:00,
2013-07-14 15:44:00,82.6,46.2,29.89,East,88,0.0,1.0,28,0.00,,CLR,0.08,VWS V14.01,2013-07-14 21:44:00,
2013-07-14 15:49:00,83.0,46.6,29.87,NE,55,0.0,0.0,28,0.00,,CLR,0.08,VWS V14.01,2013-07-14 21:49:00,
2013-07-14 15:54:00,83.8,43.2,29.87,NNE,13,0.0,0.0,24,0.00,,CLR,0.08,VWS V14.01,2013-07-14 21:54:00,
2013-07-14 15:59:00,84.3,43.6,29.87,SW,232,0.0,4.0,24,0.00,,CLR,0.08,VWS V14.01,2013-07-14 21:59:00,
2013-07-14 16:04:00,84.1,44.5,29.85,West,275,0.0,1.0,25,0.00,,CLR,0.08,VWS V14.01,2013-07-14 22:04:00,
2013-07-14 16:09:00,84.1,44.5,29.85,SW,236,3.0,3.0,25,0.00,,CLR,0.08,VWS V14.01,2013-07-14 22:09:00,
2013-07-14 16:14:00,84.1,44.5,29.85,ENE,59,0.0,0.0,25,0.00,,CLR,0.08,VWS V14.01,2013-07-14 22:14:00,
2013-07-14 16:20:00,85.1,44.3,29.85,East,79,0.0,1.0,24,0.00,,CLR,0.08,VWS V14.01,2013-07-14 22:20:00,
2013-07-14 16:25:00,85.9,42.7,29.85,SW,236,0.0,0.0,22,0.00,,CLR,0.08,VWS V14.01,2013-07-14 22:25:00,
2013-07-14 16:30:00,86.5,44.3,29.85,WSW,249,2.0,2.0,23,0.00,,CLR,0.08,VWS V14.01,2013-07-14 22:30:00,
2013-07-14 16:35:00,85.7,44.8,29.84,WNW,287,1.0,1.0,24,0.00,,CLR,0.08,VWS V14.01,2013-07-14 22:35:00,
2013-07-14 16:40:00,84.9,43.0,29.84,NW,306,1.0,1.0,23,0.00,,CLR,0.08,VWS V14.01,2013-07-14 22:40:00,
2013-07-14 16:45:00,84.5,41.5,29.84,NNE,18,0.0,2.0,22,0.00,,CLR,0.08,VWS V14.01,2013-07-14 22:45:00,
2013-07-14 16:50:00,84.7,40.5,29.84,NNW,333,0.0,0.0,21,0.00,,CLR,0.08,VWS V14.01,2013-07-14 22:50:00,
2013-07-14 16:55:00,84.3,38.9,29.84,West,275,1.0,2.0,20,0.00,,CLR,0.08,VWS V14.01,2013-07-14 22:55:00,
2013-07-14 17:00:00,84.3,43.6,29.84,ENE,59,0.0,1.0,24,0.00,,CLR,0.08,VWS V14.01,2013-07-14 23:00:00,
2013-07-14 17:05:00,85.1,43.2,29.84,East,88,0.0,1.0,23,0.00,,CLR,0.08,VWS V14.01,2013-07-14 23:05:00,
2013-07-14 17:10:00,86.5,38.0,29.84,East,88,0.0,1.0,18,0.00,,CLR,0.08,VWS V14.01,2013-07-14 23:10:00,
2013-07-14 17:15:00,86.7,44.5,29.84,NW,315,1.0,3.0,23,0.00,,CLR,0.08,VWS V14.01,2013-07-14 23:15:00,
2013-07-14 17:21:00,86.7,45.6,29.82,East,98,0.0,2.0,24,0.00,,CLR,0.08,VWS V14.01,2013-07-14 23:21:00,
2013-07-14 17:26:00,87.2,43.8,29.82,East,98,0.0,2.0,22,0.00,,CLR,0.08,VWS V14.01,2013-07-14 23:26:00,
2013-07-14 17:31:00,86.3,39.2,29.82,WNW,292,1.0,7.0,19,0.00,,CLR,0.08,VWS V14.01,2013-07-14 23:31:00,
2013-07-14 17:36:00,84.3,37.6,29.84,North,355,0.0,3.0,19,0.00,,CLR,0.08,VWS V14.01,2013-07-14 23:36:00,
2013-07-14 17:41:00,84.1,38.7,29.84,SW,232,1.0,2.0,20,0.00,,CLR,0.08,VWS V14.01,2013-07-14 23:41:00,
2013-07-14 17:46:00,84.0,38.7,29.84,SW,231,0.0,2.0,20,0.00,,CLR,0.08,VWS V14.01,2013-07-14 23:46:00,
2013-07-14 17:51:00,84.1,43.5,29.84,SSW,192,0.0,1.0,24,0.00,,CLR,0.08,VWS V14.01,2013-07-14 23:51:00,
2013-07-14 17:56:00,84.5,41.5,29.84,East,86,1.0,1.0,22,0.00,,CLR,0.08,VWS V14.01,2013-07-14 23:56:00,
2013-07-14 18:01:00,84.9,38.1,29.84,WSW,244,0.0,2.0,19,0.00,,CLR,0.08,VWS V14.01,2013-07-15 00:01:00,
2013-07-14 18:06:00,84.5,42.7,29.83,WSW,254,0.0,1.0,23,0.00,,CLR,0.08,VWS V14.01,2013-07-15 00:06:00,
2013-07-14 18:11:00,84.3,42.5,29.83,ENE,63,0.0,1.0,23,0.00,,CLR,0.08,VWS V14.01,2013-07-15 00:11:00,
2013-07-14 18:16:00,84.0,41.1,29.83,SSW,206,0.0,2.0,22,0.00,,CLR,0.08,VWS V14.01,2013-07-15 00:16:00,
2013-07-14 18:21:00,83.2,39.2,29.83,South,178,0.0,5.0,21,0.00,,CLR,0.08,VWS V14.01,2013-07-15 00:21:00,
2013-07-14 18:26:00,82.6,37.5,29.83,WSW,241,3.0,4.0,20,0.00,,CLR,0.08,VWS V14.01,2013-07-15 00:26:00,
2013-07-14 18:31:00,82.2,38.4,29.83,SW,236,0.0,7.0,21,0.00,,CLR,0.08,VWS V14.01,2013-07-15 00:31:00,
2013-07-14 18:36:00,82.0,40.6,29.83,SW,224,0.0,2.0,23,0.00,,CLR,0.08,VWS V14.01,2013-07-15 00:36:00,
2013-07-14 18:42:00,82.0,42.8,29.83,SSW,205,0.0,3.0,25,0.00,,CLR,0.08,VWS V14.01,2013-07-15 00:42:00,
2013-07-14 18:47:00,82.4,38.6,29.83,South,181,1.0,1.0,21,0.00,,CLR,0.08,VWS V14.01,2013-07-15 00:47:00,
2013-07-14 18:52:00,82.6,37.5,29.83,South,189,0.0,1.0,20,0.00,,CLR,0.08,VWS V14.01,2013-07-15 00:52:00,
2013-07-14 18:57:00,83.0,39.1,29.83,SW,220,1.0,4.0,21,0.00,,CLR,0.08,VWS V14.01,2013-07-15 00:57:00,
2013-07-14 19:02:00,82.6,38.8,29.83,West,280,0.0,3.0,21,0.00,,CLR,0.08,VWS V14.01,2013-07-15 01:02:00,
2013-07-14 19:07:00,82.2,39.6,29.83,SW,220,0.0,3.0,22,0.00,,CLR,0.08,VWS V14.01,2013-07-15 01:07:00,
2013-07-14 19:12:00,82.2,37.2,29.83,SW,221,1.0,2.0,20,0.00,,CLR,0.08,VWS V14.01,2013-07-15 01:12:00,
2013-07-14 19:17:00,81.4,40.1,29.83,SW,219,0.0,3.0,23,0.00,,CLR,0.08,VWS V14.01,2013-07-15 01:17:00,
2013-07-14 19:22:00,80.7,40.6,29.81,SW,219,0.0,0.0,24,0.00,,CLR,0.08,VWS V14.01,2013-07-15 01:22:00,
2013-07-14 19:27:00,79.9,38.8,29.81,West,281,0.0,1.0,23,0.00,,CLR,0.08,VWS V14.01,2013-07-15 01:27:00,
2013-07-14 19:32:00,79.2,38.2,29.81,WNW,282,0.0,0.0,23,0.00,,CLR,0.08,VWS V14.01,2013-07-15 01:32:00,
2013-07-14 19:37:00,78.6,38.8,29.83,West,281,0.0,0.0,24,0.00,,CLR,0.08,VWS V14.01,2013-07-15 01:37:00,
2013-07-14 19:42:00,78.1,38.4,29.83,WSW,240,1.0,5.0,24,0.00,,CLR,0.08,VWS V14.01,2013-07-15 01:42:00,
2013-07-14 19:48:00,77.7,39.1,29.83,SSW,211,0.0,3.0,25,0.00,,CLR,0.08,VWS V14.01,2013-07-15 01:48:00,
2013-07-14 19:53:00,77.6,41.0,29.84,SSW,211,0.0,0.0,27,0.00,,CLR,0.08,VWS V14.01,2013-07-15 01:53:00,
2013-07-14 19:58:00,77.2,38.7,29.84,WSW,242,0.0,4.0,25,0.00,,CLR,0.08,VWS V14.01,2013-07-15 01:58:00,
2013-07-14 20:03:00,77.0,36.4,29.84,North,360,0.0,2.0,23,0.00,,CLR,0.08,VWS V14.01,2013-07-15 02:03:00,
2013-07-14 20:08:00,76.8,36.2,29.84,SW,233,0.0,2.0,23,0.00,,CLR,0.08,VWS V14.01,2013-07-15 02:08:00,
2013-07-14 20:13:00,76.7,40.2,29.84,SW,233,0.0,0.0,27,0.00,,CLR,0.08,VWS V14.01,2013-07-15 02:13:00,
2013-07-14 20:18:00,76.1,38.8,29.82,SW,215,0.0,1.0,26,0.00,,CLR,0.08,VWS V14.01,2013-07-15 02:18:00,
2013-07-14 20:23:00,75.6,41.1,29.82,SW,215,0.0,0.0,29,0.00,,CLR,0.08,VWS V14.01,2013-07-15 02:23:00,
2013-07-14 20:28:00,75.1,41.6,29.82,SW,215,0.0,0.0,30,0.00,,CLR,0.08,VWS V14.01,2013-07-15 02:28:00,
2013-07-14 20:33:00,74.4,41.8,29.83,SW,215,0.0,1.0,31,0.00,,CLR,0.08,VWS V14.01,2013-07-15 02:33:00,
2013-07-14 20:38:00,73.9,40.5,29.83,SW,215,0.0,0.0,30,0.00,,CLR,0.08,VWS V14.01,2013-07-15 02:38:00,
2013-07-14 20:43:00,73.5,41.9,29.83,SW,215,0.0,0.0,32,0.00,,CLR,0.08,VWS V14.01,2013-07-15 02:43:00,
2013-07-14 20:48:00,73.2,42.4,29.83,SW,216,0.0,1.0,33,0.00,,CLR,0.08,VWS V14.01,2013-07-15 02:48:00,
2013-07-14 20:54:00,72.8,42.0,29.83,SW,216,0.0,0.0,33,0.00,,CLR,0.08,VWS V14.01,2013-07-15 02:54:00,
2013-07-14 20:59:00,72.3,42.4,29.83,SW,216,0.0,0.0,34,0.00,,CLR,0.08,VWS V14.01,2013-07-15 02:59:00,
2013-07-14 21:04:00,71.8,42.0,29.84,SW,216,0.0,0.0,34,0.00,,CLR,0.08,VWS V14.01,2013-07-15 03:04:00,
2013-07-14 21:09:00,71.3,42.3,29.84,SW,216,0.0,0.0,35,0.00,,CLR,0.08,VWS V14.01,2013-07-15 03:09:00,
2013-07-14 21:14:00,70.6,41.7,29.84,SW,216,0.0,0.0,35,0.00,,CLR,0.08,VWS V14.01,2013-07-15 03:14:00,
2013-07-14 21:19:00,69.8,43.1,29.83,SW,216,0.0,0.0,38,0.00,,CLR,0.08,VWS V14.01,2013-07-15 03:19:00,
2013-07-14 21:24:00,69.1,41.8,29.83,SW,216,0.0,0.0,37,0.00,,CLR,0.08,VWS V14.01,2013-07-15 03:24:00,
2013-07-14 21:29:00,68.3,43.1,29.83,SW,216,0.0,0.0,40,0.00,,CLR,0.08,VWS V14.01,2013-07-15 03:29:00,
2013-07-14 21:34:00,67.6,42.4,29.84,SW,216,0.0,0.0,40,0.00,,CLR,0.08,VWS V14.01,2013-07-15 03:34:00,
2013-07-14 21:39:00,66.8,41.1,29.84,SW,216,0.0,0.0,39,0.00,,CLR,0.08,VWS V14.01,2013-07-15 03:39:00,
2013-07-14 21:44:00,66.4,40.7,29.84,SW,216,0.0,0.0,39,0.00,,CLR,0.08,VWS V14.01,2013-07-15 03:44:00,
2013-07-14 21:49:00,66.1,40.5,29.85,SW,216,0.0,0.0,39,0.00,,CLR,0.08,VWS V14.01,2013-07-15 03:49:00,
2013-07-14 21:55:00,66.0,40.4,29.85,SSW,204,0.0,1.0,39,0.00,,CLR,0.08,VWS V14.01,2013-07-15 03:55:00,
2013-07-14 22:00:00,65.6,40.0,29.85,SSW,204,0.0,0.0,39,0.00,,CLR,0.08,VWS V14.01,2013-07-15 04:00:00,
2013-07-14 22:01:00,65.6,40.7,29.85,SSW,204,0.0,0.0,40,0.00,,CLR,0.08,VWS V14.01,2013-07-15 04:01:00,
2013-07-14 22:03:00,65.5,39.9,29.85,SSW,204,0.0,0.0,39,0.00,,CLR,0.08,VWS V14.01,2013-07-15 04:03:00,
2013-07-14 22:04:00,65.5,39.9,29.85,SSW,204,0.0,0.0,39,0.00,,CLR,0.08,VWS V14.01,2013-07-15 04:04:00,
2013-07-14 22:09:00,65.2,40.3,29.85,SSW,204,0.0,0.0,40,0.00,,CLR,0.08,VWS V14.01,2013-07-15 04:09:00,
2013-07-14 22:14:00,64.7,41.1,29.85,SSW,204,0.0,0.0,42,0.00,,CLR,0.08,VWS V14.01,2013-07-15 04:14:00,
2013-07-14 22:19:00,64.2,40.7,29.83,SSW,204,0.0,0.0,42,0.00,,CLR,0.08,VWS V14.01,2013-07-15 04:19:00,
2013-07-14 22:24:00,63.9,40.4,29.83,SSW,204,0.0,0.0,42,0.00,,CLR,0.08,VWS V14.01,2013-07-15 04:24:00,
2013-07-14 22:29:00,63.5,39.4,29.83,SSW,204,0.0,0.0,41,0.00,,CLR,0.08,VWS V14.01,2013-07-15 04:29:00,
2013-07-14 22:34:00,63.4,39.3,29.83,SSW,204,0.0,1.0,41,0.00,,CLR,0.08,VWS V14.01,2013-07-15 04:34:00,
2013-07-14 22:39:00,63.2,38.5,29.83,SSW,204,0.0,0.0,40,0.00,,CLR,0.08,VWS V14.01,2013-07-15 04:39:00,
2013-07-14 22:44:00,63.1,38.4,29.83,SSW,204,0.0,0.0,40,0.00,,CLR,0.08,VWS V14.01,2013-07-15 04:44:00,
2013-07-14 22:49:00,62.9,39.5,29.83,SSW,198,0.0,0.0,42,0.00,,CLR,0.08,VWS V14.01,2013-07-15 04:49:00,
2013-07-14 22:54:00,62.7,37.4,29.83,SSW,198,0.0,0.0,39,0.00,,CLR,0.08,VWS V14.01,2013-07-15 04:54:00,
2013-07-14 22:59:00,62.6,38.6,29.83,SSW,198,0.0,0.0,41,0.00,,CLR,0.08,VWS V14.01,2013-07-15 04:59:00,
2013-07-14 23:04:00,62.3,37.0,29.84,SSW,198,0.0,0.0,39,0.00,,CLR,0.08,VWS V14.01,2013-07-15 05:04:00,
2013-07-14 23:09:00,62.1,37.5,29.84,SSW,198,0.0,0.0,40,0.00,,CLR,0.08,VWS V14.01,2013-07-15 05:09:00,
2013-07-14 23:14:00,61.8,37.9,29.84,SSW,198,0.0,0.0,41,0.00,,CLR,0.08,VWS V14.01,2013-07-15 05:14:00,
2013-07-14 23:19:00,61.6,37.1,29.88,SSW,198,0.0,0.0,40,0.00,,CLR,0.08,VWS V14.01,2013-07-15 05:19:00,
2013-07-14 23:24:00,61.3,37.4,29.88,SSW,198,0.0,0.0,41,0.00,,CLR,0.08,VWS V14.01,2013-07-15 05:24:00,
2013-07-14 23:29:00,61.2,37.3,29.88,SSW,198,0.0,0.0,41,0.00,,CLR,0.08,VWS V14.01,2013-07-15 05:29:00,
2013-07-14 23:34:00,60.9,36.4,29.88,SSW,198,0.0,0.0,40,0.00,,CLR,0.08,VWS V14.01,2013-07-15 05:34:00,
2013-07-14 23:39:00,60.7,36.9,29.88,SSW,198,0.0,0.0,41,0.00,,CLR,0.08,VWS V14.01,2013-07-15 05:39:00,
2013-07-14 23:45:00,60.5,36.7,29.88,SSW,198,0.0,0.0,41,0.00,,CLR,0.08,VWS V14.01,2013-07-15 05:45:00,
2013-07-14 23:50:00,60.4,36.0,29.89,SSW,198,0.0,0.0,40,0.00,,CLR,0.08,VWS V14.01,2013-07-15 05:50:00,
2013-07-14 23:55:00,60.4,36.0,29.89,SSW,198,0.0,0.0,40,0.00,,CLR,0.08,VWS V14.01,2013-07-15 05:55:00,